Location: Wanzleben
(52.0609°N, 11.4408°E)
Time: 15:08:43
(UTC+00:00)

Cosmos 2263 Rocket - Pass Details

Date: 17 January 2021
Orbit: 825 x 847 km, 71.0° (Epoch: 06 March)

Event Time Altitude Azimuth Distance (km) Brightness Sun altitude
Rises 19:52:01 0° 269° (W) 3,406 6.2 -38.5°
Reaches altitude 10° 19:55:16 10° 287° (WNW) 2,471 5.3 -39.0°
Enters shadow 19:59:02 18° 329° (NNW) 1,940 4.4 -39.5°
